Weather in Ternovka

Russia / Voronezh Oblast     51°41′07″N   41°35′31″E
temp.,
°C
wind,
m/s
gust,
m/s
humid.,
%
clouds,
%
prec.,
mm/h
press.,
hPa
HPBL,
m
15 june, tue
tue1500:00+17e229192 0.0 101415
03:00+16e229345 0.0 101315
06:00+18ne249191 0.0 1013132
09:00+21ne3480100 0.2 1012530
12:00+23ne346899 1.1 10111161
15:00+24ne346974 3.1 10101125
18:00+21ne348487 2.6 1009451
21:00+18ne2393100 3.1 100936
16 june, wed
wed1600:00+16nnw229218 0.0 100913
03:00+16nnw22937 0.0 100932
06:00+17nw35925 0.0 1009161
09:00+22nw45745 0.0 1010604
12:00+25nw456233 0.1 10101336
15:00+25wnw456377 1.8 10111369
18:00+23wnw368036 1.9 1012332
21:00+20nnw35916 2.1 101379
17 june, thu
thu1700:00+18n48944 0.0 1014152
03:00+17nne511960 0.0 1015279
06:00+18nne410941 0.0 1017354
09:00+21ne68787 0.0 1018726
12:00+23ne78635 0.0 10191197
15:00+23ne78592 0.0 10201351
18:00+21ne69680 0.0 1021799
21:00+16ne49810 0.0 1023139
18 june, fri
fri1800:00+14nne410850 0.0 1023205
03:00+12ne410870 0.0 1024192
06:00+14ne410810 0.0 1026273
09:00+19ene57650 0.0 1026624
12:00+22ene67535 0.0 10261616
15:00+23ene56528 0.0 10261957
18:00+21ne57660 0.0 1026576
21:00+16ene48790 0.0 1027121
19 june, sat
sat1900:00+14e37830 0.0 1028108
03:00+13ese33870 0.0 102934
06:00+15ese24821 0.0 1030128
09:00+20ese35651 0.0 1030650
12:00+22ese45513 0.0 10291193
15:00+23ese34480 0.0 10271233
18:00+23e24620 0.0 1027686
21:00+17e33770 0.0 102720